Weather History for KWVL - January, 2013

Change the Weather History Date:

Tuesday, January 22, 2013

  Actual Average Record
Temperature  
Mean Temperature 8 °F -  
Max Temperature 12 °F 30 °F 49 °F (1979)
Min Temperature 3 °F 6 °F -24 °F (1961)
Degree Days  
Heating Degree Days 58    
Moisture  
Dew Point -6 °F    
Average Humidity 53    
Maximum Humidity 72    
Minimum Humidity 33    
Precipitation  
Precipitation 0.00 in - - ()
Sea Level Pressure  
Sea Level Pressure 29.83 in    
Wind  
Wind Speed 8 mph (NNW)    
Max Wind Speed 15 mph    
Max Gust Speed 26 mph    
Visibility 10 miles    
Events      
Averages and records for this station are not official NWS values.
T = Trace of Precipitation, MM = Missing Value Source: NWS Daily Summary

Daily Weather History Graph

Daily Weather History Graph

Search for Another Location

Airport or City:

Trip Planner

Search our weather history database for the weather conditions in past years. The results will help you decide how hot, cold, wet, or windy it might be!

Date:

Astronomy

Jan. 22, 2013 Rise Set
Actual Time 7:06 AM EST 4:34 PM EST
Civil Twilight 6:35 AM EST 5:06 PM EST
Nautical Twilight 5:59 AM EST 5:41 PM EST
Astronomical Twilight 5:25 AM EST 6:16 PM EST
Moon 12:53 PM EST (1/22) 3:27 AM EST (1/22)
Length of Visible Light 10h 30m
Length of Day
9h 27m
Waxing Gibbous, 82% of the Moon is Illuminated
Jan 22
Waxing Gibbous
Jan 26
Full
Feb 3
Last Quarter
Feb 10
New
Feb 17
First Quarter

Hourly Weather History & Observations

Time (EST) Temp. Windchill Dew Point Humidity Pressure Visibility Wind Dir Wind Speed Gust Speed Precip Events Conditions
12:15 AM 12.2 °F 1.7 °F -5.8 °F 45% 29.81 in 10.0 mi NNE 6.9 mph - N/A   Clear
12:35 AM 12.2 °F 6.1 °F -5.8 °F 45% 29.81 in 10.0 mi NE 3.5 mph - N/A   Clear
12:55 AM 10.4 °F 2.2 °F -5.8 °F 48% 29.80 in 10.0 mi NNE 4.6 mph - N/A   Clear
1:15 AM 10.4 °F -1.5 °F -4.0 °F 52% 29.79 in 10.0 mi NNE 8.1 mph - N/A   Clear
1:35 AM 10.4 °F -1.5 °F -4.0 °F 52% 29.78 in 10.0 mi NNE 8.1 mph - N/A   Clear
1:55 AM 10.4 °F -1.5 °F -2.2 °F 57% 29.78 in 10.0 mi NNE 8.1 mph - N/A   Partly Cloudy
2:15 AM 10.4 °F -2.4 °F -4.0 °F 52% 29.78 in 10.0 mi NNE 9.2 mph - N/A   Mostly Cloudy
2:35 AM 10.4 °F -2.4 °F -2.2 °F 57% 29.77 in 10.0 mi North 9.2 mph - N/A   Overcast
2:55 AM 8.6 °F -4.7 °F -4.0 °F 57% 29.77 in 10.0 mi North 9.2 mph - N/A   Overcast
3:15 AM 8.6 °F -6.3 °F -4.0 °F 57% 29.77 in 10.0 mi North 11.5 mph - N/A   Overcast
3:35 AM 8.6 °F -5.5 °F -4.0 °F 57% 29.77 in 10.0 mi North 10.4 mph - N/A   Scattered Clouds
3:55 AM 8.6 °F -4.7 °F -4.0 °F 57% 29.77 in 10.0 mi North 9.2 mph - N/A   Mostly Cloudy
4:16 AM 8.6 °F -4.7 °F -4.0 °F 57% 29.77 in 10.0 mi North 9.2 mph - N/A   Mostly Cloudy
4:35 AM 6.8 °F -6.9 °F -2.2 °F 67% 29.78 in 10.0 mi North 9.2 mph - N/A   Mostly Cloudy
4:55 AM 6.8 °F -6.9 °F -4.0 °F 61% 29.78 in 10.0 mi North 9.2 mph - N/A   Overcast
5:15 AM 6.8 °F -8.6 °F -5.8 °F 56% 29.77 in 10.0 mi North 11.5 mph - N/A   Overcast
5:35 AM 6.8 °F -10.7 °F -5.8 °F 56% 29.76 in 10.0 mi North 15.0 mph - N/A   Scattered Clouds
5:55 AM 6.8 °F -10.0 °F -5.8 °F 56% 29.76 in 10.0 mi North 13.8 mph - N/A   Partly Cloudy
6:15 AM 5.0 °F -12.3 °F -5.8 °F 61% 29.76 in 10.0 mi North 13.8 mph - N/A   Mostly Cloudy
6:35 AM 5.0 °F -10.0 °F -5.8 °F 61% 29.77 in 10.0 mi North 10.4 mph - N/A   Mostly Cloudy
6:55 AM 5.0 °F -10.0 °F -5.8 °F 61% 29.77 in 10.0 mi North 10.4 mph - N/A   Scattered Clouds
7:15 AM 5.0 °F -10.8 °F -5.8 °F 61% 29.76 in 10.0 mi North 11.5 mph 16.1 mph N/A   Clear
7:35 AM 5.0 °F -11.6 °F -5.8 °F 61% 29.77 in 10.0 mi North 12.7 mph - N/A   Partly Cloudy
7:55 AM 5.0 °F -8.1 °F -5.8 °F 61% 29.79 in 10.0 mi NNE 8.1 mph - N/A   Scattered Clouds
8:15 AM 6.8 °F -5.9 °F -5.8 °F 56% 29.79 in 10.0 mi NNE 8.1 mph - N/A   Overcast
8:35 AM 6.8 °F -5.9 °F -5.8 °F 56% 29.79 in 10.0 mi NNE 8.1 mph - N/A   Overcast
8:55 AM 6.8 °F -4.8 °F -5.8 °F 56% 29.79 in 10.0 mi North 6.9 mph - N/A   Overcast
9:15 AM 6.8 °F -5.9 °F -4.0 °F 61% 29.80 in 3.0 mi North 8.1 mph - N/A   Overcast
9:35 AM 6.8 °F -5.9 °F -2.2 °F 67% 29.80 in 3.0 mi North 8.1 mph - N/A   Overcast
9:55 AM 5.0 °F -9.1 °F -2.2 °F 72% 29.81 in 4.0 mi North 9.2 mph - N/A   Overcast
10:15 AM 6.8 °F -5.9 °F -0.4 °F 72% 29.80 in 8.0 mi North 8.1 mph - N/A   Overcast
10:35 AM 6.8 °F -4.8 °F -2.2 °F 67% 29.80 in 10.0 mi NE 6.9 mph - N/A   Mostly Cloudy
10:55 AM 6.8 °F -4.8 °F -2.2 °F 67% 29.79 in 10.0 mi NE 6.9 mph - N/A   Partly Cloudy
11:15 AM 6.8 °F -3.5 °F -5.8 °F 56% 29.79 in 10.0 mi NNE 5.8 mph - N/A   Partly Cloudy
11:35 AM 6.8 °F -4.8 °F -4.0 °F 61% 29.78 in 10.0 mi NE 6.9 mph - N/A   Scattered Clouds
11:55 AM 6.8 °F -5.9 °F -4.0 °F 61% 29.79 in 10.0 mi North 8.1 mph - N/A   Mostly Cloudy
12:15 PM 6.8 °F -4.8 °F -5.8 °F 56% 29.78 in 10.0 mi North 6.9 mph - N/A   Mostly Cloudy
12:35 PM 8.6 °F 2.0 °F -2.2 °F 62% 29.78 in 10.0 mi NNE 3.5 mph - N/A   Partly Cloudy
12:55 PM 8.6 °F 0.1 °F -2.2 °F 62% 29.78 in 10.0 mi North 4.6 mph - N/A   Clear
1:15 PM 10.4 °F - -2.2 °F 57% 29.78 in 10.0 mi Calm Calm - N/A   Clear
1:35 PM 10.4 °F -2.4 °F -4.0 °F 52% 29.78 in 10.0 mi NNE 9.2 mph - N/A   Clear
1:55 PM 10.4 °F 2.2 °F -5.8 °F 48% 29.78 in 10.0 mi NE 4.6 mph - N/A   Clear
2:15 PM 10.4 °F 2.2 °F -4.0 °F 52% 29.79 in 10.0 mi North 4.6 mph - N/A   Clear
2:35 PM 10.4 °F - -5.8 °F 48% 29.80 in 10.0 mi Calm Calm - N/A   Clear
2:55 PM 12.2 °F - -4.0 °F 48% 29.81 in 10.0 mi Calm Calm - N/A   Clear
3:15 PM 12.2 °F - -5.8 °F 45% 29.81 in 10.0 mi Calm Calm - N/A   Clear
3:35 PM 12.2 °F - -4.0 °F 48% 29.81 in 10.0 mi Calm Calm - N/A   Clear
3:55 PM 10.4 °F 4.0 °F -4.0 °F 52% 29.82 in 10.0 mi South 3.5 mph - N/A   Clear
4:15 PM 10.4 °F 4.0 °F -4.0 °F 52% 29.83 in 10.0 mi SSW 3.5 mph - N/A   Clear
4:35 PM 8.6 °F 2.0 °F -4.0 °F 57% 29.84 in 10.0 mi SW 3.5 mph - N/A   Clear
4:55 PM 8.6 °F 2.0 °F -4.0 °F 57% 29.85 in 10.0 mi WSW 3.5 mph - N/A   Mostly Cloudy
5:15 PM 8.6 °F -1.3 °F -0.4 °F 67% 29.86 in 10.0 mi WSW 5.8 mph - N/A   Mostly Cloudy
5:35 PM 8.6 °F -1.3 °F -4.0 °F 57% 29.87 in 10.0 mi WSW 5.8 mph - N/A   Clear
5:55 PM 8.6 °F 0.1 °F -2.2 °F 62% 29.88 in 10.0 mi West 4.6 mph - N/A   Clear
6:15 PM 8.6 °F 0.1 °F -0.4 °F 67% 29.88 in 10.0 mi West 4.6 mph - N/A   Clear
6:35 PM 10.4 °F -2.4 °F -0.4 °F 62% 29.89 in 10.0 mi WNW 9.2 mph - N/A   Scattered Clouds
6:55 PM 10.4 °F -0.4 °F -2.2 °F 57% 29.90 in 10.0 mi WNW 6.9 mph - N/A   Mostly Cloudy
7:15 PM 10.4 °F -1.5 °F -5.8 °F 48% 29.91 in 10.0 mi NW 8.1 mph - N/A   Scattered Clouds
7:35 PM 10.4 °F -4.8 °F -5.8 °F 48% 29.91 in 10.0 mi West 12.7 mph 17.3 mph N/A   Scattered Clouds
7:55 PM 10.4 °F -2.4 °F -9.4 °F 41% 29.91 in 10.0 mi West 9.2 mph 19.6 mph N/A   Clear
8:15 PM 8.6 °F -5.5 °F -11.2 °F 40% 29.91 in 10.0 mi West 10.4 mph - N/A   Clear
8:35 PM 8.6 °F -7.0 °F -13.0 °F 37% 29.92 in 10.0 mi West 12.7 mph 18.4 mph N/A   Clear
8:55 PM 8.6 °F -4.7 °F -14.8 °F 34% 29.92 in 10.0 mi West 9.2 mph - N/A   Clear
9:15 PM 8.6 °F -6.3 °F -13.0 °F 37% 29.92 in 10.0 mi WSW 11.5 mph - N/A   Clear
9:35 PM 8.6 °F -8.3 °F -13.0 °F 37% 29.93 in 10.0 mi West 15.0 mph 26.5 mph N/A   Clear
9:55 PM 8.6 °F -7.0 °F -14.8 °F 34% 29.93 in 10.0 mi West 12.7 mph 16.1 mph N/A   Clear
10:15 PM 6.8 °F -9.3 °F -14.8 °F 37% 29.93 in 10.0 mi West 12.7 mph 19.6 mph N/A   Clear
10:36 PM 6.8 °F -10.0 °F -14.8 °F 37% 29.94 in 10.0 mi WSW 13.8 mph - N/A   Clear
10:55 PM 6.8 °F -10.7 °F -16.6 °F 34% 29.95 in 10.0 mi WSW 15.0 mph 25.3 mph N/A   Clear
11:15 PM 5.0 °F -13.0 °F -18.4 °F 33% 29.95 in 10.0 mi West 15.0 mph 20.7 mph N/A   Clear
11:35 PM 3.2 °F -13.1 °F -16.6 °F 39% 29.95 in 10.0 mi West 11.5 mph - N/A   Clear
11:55 PM 3.2 °F -10.3 °F -16.6 °F 39% 29.95 in 10.0 mi West 8.1 mph 16.1 mph N/A   Clear